RH
36 33 29 30 35 46 41 30 24 20 18 17 20 20 19 26 33 34 32 29 29 34 34 31 28 27 28
40 36 35 31 27 26 26 28 23 21 20 16 15 15 16 19 24 31 34 36 35 35 35 36 35 35 36
63 43 39 37 37 32 27 26 25 25 23 20 17 14 13 14 18 24 34 36 35 39 41 40 38 38 41
64 64 50 43 45 42 37 35 35 33 30 26 22 18 14 13 13 16 24 36 38 37 37 39 38 39 41
65 58 63 57 49 46 46 40 39 37 35 31 30 27 20 14 15 15 19 24 30 38 38 29 20 18 21
98 99 98 89 86 70 61 64 61 45 42 36 35 28 27 20 18 22 23 21 21 20 20 20 21 20 18
99 100 98 91 92 92 86 74 76 64 65 58 43 35 30 30 30 31 25 22 22 22 21 21 20 20 21
91 95 96 95 97 97 100 99 82 74 80 79 54 47 37 30 31 31 31 28 27 24 19 14 12 13 15
55 58 58 73 94 98 99 99 96 86 68 83 76 53 56 44 40 40 36 32 23 14 12 11 12 15 16
56 51 50 51 62 92 97 98 97 99 84 94 94 82 80 60 50 44 38 25 17 15 14 17 20 19 19
75 67 60 48 52 56 73 94 98 95 99 99 99 98 81 66 40 38 37 30 24 21 21 26 25 22 24
80 72 60 48 50 56 68 74 96 98 90 98 98 98 78 78 77 49 46 41 36 32 31 31 31 29 28
77 76 72 70 80 77 84 83 78 85 100 97 97 94 94 97 89 73 67 53 53 54 49 43 37 34 30
92 86 83 81 82 83 88 89 80 82 98 98 97 98 91 90 98 99 93 90 71 65 67 68 61 55 47
83 85 84 83 85 90 87 91 86 87 98 98 95 94 92 90 91 81 98 98 84 81 78 48 55 76 75
83 86 91 90 86 87 99 100 96 93 94 92 96 95 90 83 83 82 81 74 76 80 81 66 42 46 54
95 88 91 89 88 100 97 98 100 100 98 98 97 97 94 86 77 79 80 79 76 72 65 68 59 43 43
Wind_Speed
28 25 23 22 22 24 25 24 23 22 22 20 17 17 18 16 15 15 14 14 12 11 12 13 15 14 13
30 30 27 23 24 25 25 26 24 23 23 21 19 18 17 17 17 15 15 13 11 11 11 12 12 12 13
32 32 32 28 27 26 27 26 25 23 21 22 20 20 18 17 18 18 15 15 14 12 10 9 8 7 8
32 32 33 31 30 30 30 27 26 23 23 22 21 20 20 19 19 19 19 17 16 15 15 13 11 10 9
35 36 35 33 34 33 33 31 29 26 26 24 23 20 20 21 20 19 19 18 17 15 14 13 12 12 11
35 38 40 40 40 36 32 31 33 28 25 23 22 24 21 21 20 19 17 16 16 15 14 12 12 12 12
29 32 34 29 27 32 34 30 33 32 31 30 26 26 21 20 21 21 20 18 17 17 16 16 15 14 14
25 30 33 32 32 32 33 31 35 33 29 34 30 30 27 23 23 24 23 22 21 20 19 18 17 17 15
22 24 25 28 29 31 34 30 35 38 34 35 35 32 30 26 24 25 24 24 23 22 20 18 17 16 16
28 28 27 25 22 23 29 36 36 33 35 34 37 31 30 29 28 27 26 24 23 21 19 18 18 17 17
31 31 32 31 29 25 23 29 33 32 33 26 31 27 27 21 15 23 28 26 23 21 20 19 18 18 18
30 31 31 33 30 28 26 27 27 33 34 30 24 20 20 22 22 16 16 15 15 16 18 19 20 20 20
28 29 28 27 25 27 25 28 26 29 32 32 26 23 22 26 22 21 18 21 21 19 20 21 21 23 23
26 27 26 25 25 26 26 26 26 27 27 21 22 19 23 32 26 21 24 23 21 18 20 22 23 23 22
23 23 24 23 23 24 26 25 22 21 21 20 20 24 23 22 20 24 27 28 27 24 24 25 26 23 22
21 21 22 23 23 22 22 25 22 22 23 22 25 25 25 28 30 32 31 31 30 29 28 28 31 31 25
22 21 21 23 21 20 19 18 20 21 20 19 22 21 21 26 25 21 22 22 20 19 21 25 28 26 22
Wind_Direction
291 295 294 294 290 288 294 298 301 302 298 297 292 288 288 287 282 281 281 279 273 266 258 253 249 241 235
292 293 293 293 290 291 290 292 297 296 293 291 290 285 280 278 279 274 273 275 274 270 264 257 251 245 236
289 290 290 292 292 288 288 289 290 291 285 283 282 283 281 274 269 269 265 260 261 258 253 252 255 253 244
284 284 285 288 291 291 291 288 288 284 281 278 277 276 277 274 267 260 259 258 253 248 250 255 254 249 244
280 282 281 282 283 291 292 292 287 283 283 276 275 271 268 268 268 260 256 252 252 247 240 237 241 242 239
286 287 286 281 282 282 288 289 288 287 284 281 278 268 265 260 259 255 245 243 242 240 237 235 229 224 225
285 287 292 292 293 290 279 274 274 277 281 280 273 266 262 256 245 245 247 244 241 237 240 241 241 238 233
285 286 286 287 284 280 281 280 269 266 264 266 268 266 262 255 248 244 245 248 247 245 245 244 242 238 233
294 291 297 285 278 280 278 279 276 268 261 261 261 265 262 255 248 249 248 247 246 245 241 237 233 229 225
294 292 293 296 297 292 286 272 266 275 274 255 256 253 257 256 249 246 244 243 242 240 236 228 224 221 223
294 292 291 296 294 298 294 289 276 275 269 252 244 242 246 250 256 239 237 237 236 229 225 222 226 232 236
293 291 292 291 289 293 297 298 273 271 270 254 251 227 239 248 243 238 210 208 224 228 227 231 239 244 246
293 295 295 296 298 286 290 296 299 277 258 256 252 249 237 241 242 249 246 245 250 250 244 241 241 241 244
297 299 300 298 291 289 287 297 302 299 242 245 247 235 240 241 230 248 256 254 259 260 255 249 248 249 247
299 298 297 296 291 289 290 292 284 292 244 234 246 248 243 253 255 254 256 260 263 264 262 264 257 251 251
301 299 297 294 293 290 284 283 286 272 273 268 253 254 255 253 254 257 262 267 270 270 264 263 254 253 255
300 299 296 297 296 295 290 279 276 274 271 279 258 248 246 250 258 255 258 260 261 262 257 254 255 256 256